Terminal Aerodrome Forecast
Issued by NWS

Home | Current Version | Previous Version | Text Only | Print | Product List | Glossary On
Versions: 1 2 3 4 5 6 7 8 9 10 11 12 13 14 15 16 17 18 19 20 21 22 23 24 25 26 27 28 29 30 31 32 33 34 35 36 37 38 39 40 41 42 43 44 45
000
FTAK31 PANC 260523
TAFAAQ
TAF
PAAQ 260523Z 2606/2706 VRB04KT P6SM OVC070
      TEMPO 2607/2609 3SM -SN BR BKN015
     FM260900 VRB03KT 2SM -SN BR BKN012
     FM261300 VRB03KT 6SM -SN SCT012 BKN020
     FM261500 31004KT P6SM SCT025 BKN045
     FM270200 35005KT P6SM BKN200=

USA.gov is the U.S. government's official web portal to all federal, state and local government web resources and services.